Glasgow, MT

6:39 AM MDT on March 29, 2017 (GMT -0600)
Wokal-Glasgow International

Weather History for KGGW - June, 2014

Change the Weather History Date:

Wednesday, June 25, 2014

  Actual Average Record
Temperature  
Mean Temperature 67 °F 67 °F  
Max Temperature 79 °F 80 °F 102 °F (2009)
Min Temperature 55 °F 53 °F 39 °F (2003)
Degree Days  
Heating Degree Days 0 2  
Month to date heating degree days 106 97  
Since 1 June heating degree days 106 97  
Since 1 July heating degree days 8914 8428  
Cooling Degree Days 2 4  
Month to date cooling degree days 8 55  
Year to date cooling degree days 42 72  
Since 1 June cooling degree days 8 55  
Growing Degree Days 17 (Base 50)    
Moisture  
Dew Point 56 °F    
Average Humidity 68    
Maximum Humidity 90    
Minimum Humidity 45    
Precipitation  
Precipitation 0.00 in 0.07 in 1.65 in (1923)
Month to date precipitation 1.79 2.00  
Year to date precipitation 5.18 5.82  
Snow  
Snow 0.00 in 0.00 in 0.00 in (2002)
Month to date snowfall 0.0 0.0  
Since 1 June snowfall 0.0 0.0  
Since 1 July snowfall 30.4 34.8  
Snow Depth 0.00 in    
Sea Level Pressure  
Sea Level Pressure 29.87 in    
Wind  
Wind Speed 15 mph (ESE)    
Max Wind Speed 22 mph    
Max Gust Speed 27 mph    
Visibility 10 miles    
Events      
T = Trace of Precipitation, MM = Missing Value Source: NWS Daily Summary

Daily Weather History Graph

Daily Weather History Graph

Search for Another Location

Airport or City:

Trip Planner

Search our weather history database for the weather conditions in past years. The results will help you decide how hot, cold, wet, or windy it might be!

Date:

Astronomy

Jun. 25, 2014 Rise Set
Actual Time 5:07 AM MDT 9:11 PM MDT
Civil Twilight 4:25 AM MDT 9:52 PM MDT
Nautical Twilight 3:27 AM MDT 10:50 PM MDT
Astronomical Twilight 1:43 AM MDT 12:34 AM MDT
Moon 4:08 AM MDT (6/25) 7:38 PM MDT (6/25)
Length of Visible Light 17h 27m
Length of Day
16h 03m
Waning Crescent, 2% of the Moon is Illuminated
Jun 25
Waning Crescent
Jun 27
New
Jul 5
First Quarter
Jul 12
Full
Jul 18
Last Quarter

Hourly Weather History & Observations

Time (MDT) Temp. Dew Point Humidity Pressure Visibility Wind Dir Wind Speed Gust Speed Precip Events Conditions
12:53 AM 57.0 °F 51.1 °F 81% 29.99 in 10.0 mi ESE 13.8 mph - N/A   Clear
1:53 AM 55.9 °F 51.1 °F 84% 29.97 in 10.0 mi East 15.0 mph - N/A   Partly Cloudy
2:53 AM 55.9 °F 52.0 °F 87% 29.95 in 10.0 mi East 15.0 mph - N/A   Clear
3:53 AM 55.9 °F 52.0 °F 87% 29.94 in 10.0 mi East 13.8 mph - N/A   Clear
4:53 AM 55.0 °F 52.0 °F 89% 29.93 in 10.0 mi ESE 16.1 mph - N/A   Clear
5:53 AM 55.0 °F 52.0 °F 89% 29.93 in 10.0 mi East 16.1 mph - N/A   Clear
6:53 AM 57.9 °F 53.1 °F 84% 29.93 in 10.0 mi ESE 18.4 mph - N/A   Clear
7:53 AM 61.0 °F 53.1 °F 75% 29.91 in 10.0 mi East 19.6 mph - N/A   Clear
8:53 AM 64.9 °F 55.0 °F 70% 29.91 in 10.0 mi ESE 17.3 mph - N/A   Clear
9:53 AM 66.9 °F 55.9 °F 68% 29.91 in 10.0 mi ESE 16.1 mph - N/A   Clear
10:53 AM 66.0 °F 55.9 °F 70% 29.91 in 10.0 mi ESE 16.1 mph - N/A   Mostly Cloudy
11:53 AM 68.0 °F 57.0 °F 68% 29.89 in 10.0 mi SE 16.1 mph - N/A   Overcast
12:53 PM 71.1 °F 57.9 °F 63% 29.87 in 10.0 mi ESE 11.5 mph 21.9 mph N/A   Partly Cloudy
1:53 PM 75.2 °F 57.2 °F 53% 29.87 in 10.0 mi ESE 13.8 mph - N/A   Scattered Clouds
2:53 PM 75.9 °F 57.9 °F 54% 29.85 in 10.0 mi SE 13.8 mph - N/A   Clear
3:53 PM 77.0 °F 57.0 °F 50% 29.83 in 10.0 mi SE 17.3 mph - N/A   Clear
4:53 PM 77.0 °F 59.0 °F 54% 29.82 in 10.0 mi SE 13.8 mph - N/A   Clear
5:53 PM 79.0 °F 55.9 °F 45% 29.79 in 10.0 mi SSE 18.4 mph 24.2 mph N/A   Partly Cloudy
6:53 PM 77.0 °F 57.9 °F 52% 29.78 in 10.0 mi SSE 17.3 mph - N/A   Clear
7:53 PM 73.9 °F 60.1 °F 62% 29.78 in 10.0 mi ESE 15.0 mph - N/A   Clear
8:53 PM 71.1 °F 60.1 °F 68% 29.78 in 10.0 mi ESE 10.4 mph - N/A   Clear
9:53 PM 66.0 °F 60.1 °F 81% 29.81 in 10.0 mi SE 9.2 mph - N/A   Clear
10:53 PM 64.4 °F 59.0 °F 83% 29.82 in 10.0 mi ESE 11.5 mph - N/A   Clear
11:53 PM 63.0 °F 59.0 °F 87% 29.79 in 10.0 mi East 10.4 mph - N/A   Clear